Skip Page Navigation
NASA JPL Caltech
NASA Logo - Jet Propulsion Laboratory + View the NASA Portal
+ Near-Earth Object (NEO) Program
Search JPL
JPL Home Earth Solar System Stars & Galaxies Technology
JPL Solar System Dynamics
BODIES ORBITS EPHEMERIDES TOOLS PHYSICAL DATA DISCOVERY FAQ SITE MAP
JPL Small-Body Database Browser
Search: [ help ]  
79146 (1992 JP3)
Classification: Main-belt Asteroid          SPK-ID: 2079146
Ephemeris | Orbit Diagram | Orbital Elements | Physical Parameters | Discovery Circumstances ]

[ show orbit diagram ]
Orbital Elements at Epoch 2457600.5 (2016-Jul-31.0) TDB
Reference: JPL 12 (heliocentric ecliptic J2000)
 Element Value Uncertainty (1-sigma)   Units 
e .172236328889504 1.0141e-07  
a 2.533829184308497 1.4431e-08 au
q 2.097411747570115 2.6333e-07 au
i 7.98317423885532 1.0487e-05 deg
node 42.05331094575418 4.5299e-05 deg
peri 198.6816112096882 5.7341e-05 deg
M 355.4023034276338 3.521e-05 deg
tp 2457619.314913821230
(2016-Aug-18.81491382)
0.00014418 JED
period 1473.209218797351
4.03
1.2585e-05
3.446e-08
d
yr
n .2443644768214827 2.0875e-09 deg/d
Q 2.970246621046879 1.6916e-08 au
  Orbit Determination Parameters
   # obs. used (total)      706  
   data-arc span      8748 days (23.95 yr)  
   first obs. used      1992-05-02  
   last obs. used      2016-04-14  
   planetary ephem.      DE431  
   SB-pert. ephem.      SB431-BIG16  
   condition code      0  
   fit RMS      .54955  
   data source      ORB  
   producer      Otto Matic  
   solution date      2016-Apr-25 15:22:44  

Additional Information
 Earth MOID = 1.08685 au 
 Jupiter MOID = 2.04179 au 
 T_jup = 3.415 
[ show covariance matrix ]

Ephemeris | Orbit Diagram | Orbital Elements | Physical Parameters | Discovery Circumstances ]

Physical Parameter Table
Parameter Symbol Value Units Sigma Reference Notes
absolute magnitude H 15.3 mag n/a MPO272999  

79146 (1992 JP3)          Discovered 1992-May-02 by Debehogne, H. at La Silla
Reference: 20040504/Numbers.arcLast Updated: 2004-07-16

Alternate Designations
 1992 JP3 = 1996 HV18 
Ephemeris | Orbit Diagram | Orbital Elements | Physical Parameters | Discovery Circumstances ]
ABOUT SSD CREDITS/AWARDS PRIVACY/COPYRIGHT GLOSSARY LINKS
FirstGov 2016-May-03 12:30 UT
(server date/time)  
NASA Home Page
Site Manager:   Ryan S. Park
Webmaster  Alan B. Chamberlin